TeikyoSat 4
1 49396U 21102B   25305.47571560  .00002218  00000-0  14650-3 0  9999
2 49396  97.3962 338.6202 0012336   5.2369 354.8987 15.08358147218381
Z-Sat
1 49399U 21102E   25305.59392245  .00005960  00000-0  31397-3 0  9990
2 49399  97.3648 342.7780 0016442 325.4540  34.5623 15.15853653218932
KOSEN 1
1 49402U 21102H   25305.57699665  .00008779  00000-0  37933-3 0  9992
2 49402  97.3542 347.3385 0013300 293.5221  66.4618 15.22636498219330
HO-113
1 50466U 21131B   25305.61521200  .00000796  00000-0  26126-3 0  9993
2 50466  98.5070  34.2435 0005103  69.6775 290.4961 14.41024474202334
SNUGLITE 2
1 52899U 22065F   25305.65043769  .00001720  00000-0  33985-3 0  9994
2 52899  98.1898  86.4285 0007890  26.7102 333.4505 14.63657680177704
UmKA 1 (RS40S)
1 57172U 23091G   25305.60279519  .00007186  00000-0  36268-3 0  9991
2 57172  97.5409   0.2566 0013638 185.7530 174.3549 15.17339085129453
CubeBel-2 (EU11S)
1 57175U 23091K   25305.59916534  .00012023  00000-0  51974-3 0  9994
2 57175  97.5406   2.3933 0011131 188.9103 171.1937 15.22566413129595
ENSO
1 58470U 23185J   25305.61109479  .00798424  31224-3  13644-2 0  9994
2 58470  97.3446  27.9673 0007750 264.0936  95.9460 16.02531214107761
SONATE-2
1 59112U 24043Q   25305.61733444  .00025679  00000-0  59989-3 0  9990
2 59112  97.5309  80.4350 0009037 316.3651  43.6880 15.42129390 92632
MO-122
1 60209U 24125G   25305.32460503  .00032373  00000-0  73424-3 0  9990
2 60209  97.2588 155.7582 0015672 342.0686  18.0007 15.42877869 74218
GRBBeta
1 60237U 24128C   25305.41042511  .00005381  00000-0  38742-3 0  9992
2 60237  61.9903 294.0713 0057135  87.7930 272.9703 15.04144868 71974
Curium One
1 60242U 24128H   25305.29608328  .00010661  00000-0  68148-3 0  9998
2 60242  61.9796 290.2752 0056822  84.3895 276.3675 15.07769777 72035
ROBUSTA-3A
1 60243U 24128J   25305.54801486  .00009358  00000-0  60995-3 0  9990
2 60243  61.9872 290.7501 0056780  81.8047 278.9481 15.07176074 72059
CatSat
1 60246U 24125J   25305.57078755  .00031679  00000-0  86463-3 0  9997
2 60246  97.2394 153.4960 0035228 297.7001  62.0671 15.36729038 72193
HYPERVIEW-1G (RS66S)
1 61772U 24199AP  25305.63344706  .00035908  00000-0  79545-3 0  9994
2 61772  97.3270 174.6733 0013013  38.3571 321.8600 15.43600646 99260
AO-123
1 61781U 24199AY  25305.63679216  .00010808  00000-0  36410-3 0  9997
2 61781  97.3301 171.5611 0016558  47.3198 312.9435 15.30794138 99058
ZIMSAT 2
1 61783U 24199BA  25305.61596698  .00101972  00000-0  13304-2 0  9998
2 61783  97.3191 177.0256 0010813  36.7444 323.4551 15.58284233102575
HADES-R (SO-124)
1 62690U 25009CK  25305.50099577  .00092197  00000-0  18688-2 0  9997
2 62690  97.3957  26.9530 0002830 273.5426  86.5499 15.46051908 44381
HYDRA-T
1 62692U 25009CM  25305.51103430  .00100553  00000-0  19809-2 0  9996
2 62692  97.3951  27.0911 0002821 268.6588  91.4339 15.46850303 44391
JINJUSat 1B
1 63210U 25052A   25304.94269311  .00020180  00000-0  81507-3 0  9990
2 63210  97.4214 197.4152 0004514 141.3421 218.8141 15.24787908 35217
NUSHSAT 1
1 63211U 25052B   25305.22507833  .00020122  00000-0  79425-3 0  9999
2 63211  97.4198 197.7682 0004258 142.9352 217.2181 15.25560894 35261
TEVEL2-4
1 63213U 25052D   25305.47205717  .00018055  00000-0  72459-3 0  9996
2 63213  97.4122 197.6470 0002890 148.4453 211.6958 15.25031769 35294
TEVEL2-5
1 63214U 25052E   25304.95085860  .00020986  00000-0  84322-3 0  9992
2 63214  97.4119 197.1227 0002867 149.7143 210.4261 15.24960344 35215
TEVEL2-6
1 63215U 25052F   25305.21933987  .00018266  00000-0  73533-3 0  9995
2 63215  97.4122 197.3786 0002922 149.9671 210.1735 15.24924885 35259
TEVEL2-1
1 63217U 25052H   25305.64748552  .00017740  00000-0  72018-3 0  9999
2 63217  97.4098 197.6469 0002368 163.1338 196.9979 15.24649695 35317
TEVEL2-3
1 63218U 25052J   25305.25339146  .00019070  00000-0  77379-3 0  9995
2 63218  97.4099 197.2600 0002409 165.1278 195.0031 15.24651149 35252
TEVEL2-2
1 63219U 25052K   25305.45137441  .00018442  00000-0  74870-3 0  9997
2 63219  97.4100 197.4529 0002355 164.0007 196.1305 15.24641344 35281
TEVEL2-9
1 63237U 25052AD  25305.44099104  .00017375  00000-0  73505-3 0  9997
2 63237  97.4158 197.2044 0005429 214.7556 145.3327 15.23252816 35259
TEVEL2-7
1 63238U 25052AE  25305.64832447  .00016591  00000-0  70444-3 0  9993
2 63238  97.4162 197.3910 0005553 214.6112 145.4764 15.23137568 35288
TEVEL2-8
1 63239U 25052AF  25305.65323436  .00016735  00000-0  71113-3 0  9992
2 63239  97.4165 197.3823 0005551 215.3802 144.7067 15.23108848 35284
HYDRA-W
1 63490U 25052BL  25305.25344601  .00058769  00000-0  17418-2 0  9994
2 63490  97.4094 198.6556 0006454 199.6330 160.4665 15.34620736 35347
HADES-ICM (SO-125)
1 63492U 25052BN  25305.27091056  .00052114  00000-0  16089-2 0  9992
2 63492  97.4108 198.4986 0006801 207.2105 152.8782 15.33357672 35331
Dragonfly
1 65729U 98067XH  25305.30218216  .00089535  00000-0  10959-2 0  9993
2 65729  51.6321 345.8388 0003434  62.4125 297.7216 15.59621577  6673
RSP-03
1 65732U 98067XL  25305.50685713  .00075093  00000-0  95658-3 0  9993
2 65732  51.6322 344.9555 0005656  43.0184 317.1250 15.58632481  6717
GHS-01
1 65733U 98067XM  25305.48616971  .00096430  00000-0  11465-2 0  9992
2 65733  51.6330 344.8180 0004044  60.8132 299.3265 15.60348811  6711
BOTAN
1 65942U 98067XP  25305.54523315  .00066684  00000-0  10070-2 0  9999
2 65942  51.6331 345.9591 0004626   5.6465 354.4577 15.54095782  3449
